Location: L�e
(43.2833°N, 0.2833°W)
Time: 06:52:55
(UTC+00:00)

Daily predictions for brighter satellites

Satellite Brightness Start Highest point End
(mag) Time Altitude Azimuth Time Altitude Azimuth Time Altitude Azimuth
Cosmos 1452 Rocket 3.5 20:12:37 10° SSW 20:17:52 74° ESE 20:23:09 10° NNE
Resurs 1-3 3.7 20:14:17 10° SSE 20:18:40 86° WSW 20:23:05 10° NNW
Cosmos 2219 Rocket 3.5 20:17:32 10° SE 20:21:31 20° E 20:25:29 10° NE
Cosmos 2333 Rocket 3.3 20:18:14 10° SSE 20:22:44 24° ESE 20:27:14 10° NE
FALCON 9 DEB 3.7 20:21:27 10° SSW 20:24:12 29° SE 20:27:00 10° ENE
Lacrosse 5 rocket 1.0 20:24:11 10° SW 20:27:53 67° SE 20:31:30 10° NE
Cosmos 1850 Rocket 4.1 20:22:44 10° NNW 20:28:01 65° ENE 20:33:12 10° SSE
Cosmos 1025 Rocket 4.3 20:24:30 10° SE 20:28:03 25° E 20:31:36 10° NE
Cosmos 1758 3.3 20:24:10 10° N 20:28:09 82° E 20:32:06 10° S
Cosmos 1844 4.4 20:25:25 10° NNW 20:30:42 42° ENE 20:36:00 10° SE
Cosmos 1727 Rocket 4.0 20:27:24 10° S 20:33:41 75° E 20:39:56 10° N
Cosmos 1331 Rocket 4.3 20:30:03 10° S 20:35:02 47° ESE 20:40:05 10° NNE
Cosmos 1605 Rocket 4.4 20:29:24 10° NNW 20:35:46 68° W 20:42:01 10° S
FALCON 9 DEB 2.8 20:36:44 10° SW 20:39:46 61° SE 20:42:50 10° ENE
CENTAUR R/B 4.3 20:35:43 10° WSW 20:41:20 38° NW 20:48:00 10° NNE
KORONAS-FOTON 3.9 20:38:25 10° S 20:42:08 57° E 20:45:52 10° NNE
Cosmos 1726 3.5 20:39:57 10° NNW 20:43:20 37° W 20:46:42 10° SSW
Terra 3.6 20:41:40 10° ESE 20:44:58 19° ENE 20:48:17 10° NNE
Cosmos 2360 Rocket 2.2 20:39:46 10° SSW 20:45:25 80° ESE 20:51:05 10° NNE
SPOT 1/Viking Rocket 3.7 20:40:45 10° SSE 20:45:46 58° ENE 20:50:50 10° N
Cosmos 1674 2.6 20:42:30 10° S 20:46:11 65° E 20:49:52 10° NNE
OBJECT-B 3.7 20:44:27 10° SW 20:46:14 14° W 20:48:01 10° WNW
FALCON 9 DEB 2.9 20:44:41 10° SW 20:47:44 55° SE 20:50:48 10° ENE
CZ-2C R/B 3.9 20:44:45 10° NNE 20:49:30 61° E 20:54:12 10° S
Cosmos 2322 Rocket 3.0 20:43:59 10° SW 20:49:35 57° WNW 20:55:14 10° NNE
SL-16 R/B 3.5 20:44:18 10° SW 20:49:43 45° WNW 20:55:10 10° NNE
FALCON 9 DEB 2.7 20:47:14 10° SW 20:50:19 73° SE 20:53:26 10° ENE
SPOT 5 4.0 20:48:16 12° SE 20:52:16 31° ENE 20:56:32 10° N
Cosmos 1953 2.4 20:48:23 10° N 20:52:26 65° E 20:56:03 13° SSE
USA 245 4.3 20:48:16 12° SSE 20:52:55 62° ENE 20:58:45 10° N
Cosmos 1975 Rocket 3.0 20:49:00 10° S 20:53:21 88° ESE 20:57:47 10° N
Cosmos 1802 Rocket 4.3 20:50:20 10° N 20:56:29 53° ENE 21:01:56 14° SSE
Cosmos 1459 Rocket 4.0 20:51:56 10° N 20:57:57 66° E 21:03:32 12° SSE
Cosmos 1741 Rocket 4.3 20:57:27 10° NNW 21:02:41 67° WSW 21:07:41 11° S
Cosmos 1300 4.1 21:01:11 10° NNE 21:04:22 25° ENE 21:06:19 17° ESE
Resurs 01 Rocket 2.4 21:00:34 10° S 21:04:48 48° W 21:09:05 10° NNW
Lacrosse 5 3.7 21:01:37 10° WNW 21:05:23 21° WSW 21:09:10 10° S
Meteor 1-16 Rocket 4.1 21:02:10 10° NNW 21:07:37 85° W 21:12:35 12° S
Cosmos 1000 Rocket 4.4 21:03:00 10° S 21:09:06 82° E 21:15:17 10° N
Cosmos 1340 3.0 21:07:28 17° SSE 21:10:03 44° E 21:13:40 10° NNE
Cosmos 2322 3.7 21:07:32 10° S 21:13:05 62° ESE 21:18:41 10° NNE
SPOT 3 Rocket 4.2 21:09:36 10° S 21:14:39 53° W 21:19:44 10° NNW
COSMOS 2428 3.1 21:09:27 10° S 21:14:51 44° ESE 21:20:17 10° NE
Aureole 1 Rocket 4.3 21:09:43 10° NNW 21:15:58 81° WSW 21:22:43 15° SSE
Cosmos 2278 Rocket 3.8 21:12:06 10° N 21:16:36 23° NE 21:20:55 11° ESE
Cosmos 1844 Rocket 2.9 21:12:22 10° NNW 21:18:01 71° WSW 21:22:30 16° SSE
ATLAS 2A CENTAUR R/B 4.1 21:16:47 10° SW 21:25:13 18° SSW 21:27:33 16° S
Cosmos 968 Rocket 4.0 21:25:36 10° N 21:30:31 45° ENE 21:33:29 22° SE
Cosmos 1908 4.2 21:29:10 10° NNW 21:32:51 43° W 21:35:50 14° SSW
Cosmos 1626 2.6 21:29:30 11° SSW 21:33:00 57° W 21:36:39 10° N
Cosmos 2123 Rocket 4.0 21:29:46 12° S 21:35:36 82° E 21:41:58 10° N
Cosmos 1544 Rocket 3.8 21:31:52 10° NNW 21:36:18 66° W 21:39:22 19° S
Cosmos 2061 Rocket 4.0 21:31:45 10° N 21:38:14 85° E 21:42:50 20° S
Uosat 12 SS-18 rocket 4.1 21:35:10 10° SSW 21:39:25 66° ESE 21:44:16 10° NE
Meteor 2-10 Rocket 4.2 21:35:32 10° N 21:40:14 38° ENE 21:42:36 24° SE
Cosmos 1455 Rocket 4.4 21:36:31 10° NNW 21:40:36 35° W 21:44:33 10° SSW
ARIANE 5 R/B 2.9 21:38:34 21° S 21:41:27 67° WSW 21:45:57 10° NNW
Cosmos 2233 Rocket 4.2 21:35:56 10° N 21:41:59 55° ENE 21:45:35 24° SSE
Cosmos 1346 Rocket 3.5 21:47:04 32° SE 21:48:04 37° E 21:51:48 10° NNE
Cosmos 405 3.2 21:48:51 10° NNW 21:52:17 62° W 21:53:33 34° SSW
ATLAS CENTAUR R/B 1.8 21:48:07 10° NW 21:52:27 59° WSW 21:54:30 30° S
Cosmos 1980 4.4 21:51:14 27° SE 21:53:14 35° ESE 21:58:21 10° NE
BREEZE-M DEB (TANK) 3.9 21:39:00 10° SW 21:54:22 54° SSE 21:58:30 10° ENE
ATLAS 3B R/B 3.0 21:48:42 10° SW 21:55:12 68° NW 22:01:58 10° NNE
SL-4 R/B 1.9 21:53:35 10° SW 21:57:45 60° SE 22:01:36 10° ENE
SL-8 R/B 4.4 21:54:21 10° WNW 21:58:49 39° SW 22:00:18 31° S
Centaur D AC-28 4.4 22:00:00 23° SSE 22:01:52 25° SE 22:21:01 10° E
CZ-4B DEB 4.1 22:03:26 59° S 22:03:57 86° WSW 22:07:08 10° NNW
Cosmos 2219 Rocket 2.7 21:59:19 10° SW 22:04:55 62° WNW 22:10:34 10° NNE
Meteor 2-5 Rocket 3.8 22:01:10 17° SSW 22:05:26 75° W 22:11:05 10° N
Cosmos 2016 Rocket 4.5 22:00:41 10° NNW 22:06:37 54° W 22:10:59 19° SSW
Cosmos 2333 Rocket 3.0 22:01:01 10° SW 22:06:37 52° WNW 22:12:13 10° NNE
ERS-1 Rocket 3.5 22:04:07 24° SSW 22:07:02 53° W 22:11:59 10° NNW
Geosat 4.2 22:04:47 30° S 22:07:12 62° WSW 22:12:11 10° NNW
Lacrosse 5 rocket 3.9 22:04:29 10° WNW 22:07:16 20° NNW 22:10:02 10° NNE
Cosmos 1536 Rocket 4.3 22:05:18 17° SSW 22:08:35 50° WNW 22:12:56 10° N
Iridium 2 4.4 22:12:19 35° E 22:12:36 36° E 22:16:03 10° NNE
Cosmos 2228 3.1 22:08:22 10° N 22:12:46 68° E 22:14:06 43° SSE
USA 215 3.4 22:15:27 10° ENE 22:21:43 47° SE 22:25:28 24° SSW
Terra 2.3 22:20:12 29° SSW 22:22:19 52° W 22:26:59 10° NNW
SL-16 R/B 3.6 22:23:55 20° ESE 22:24:15 20° E 22:28:18 10° NE
Cosmos 2237 Rocket 2.2 22:23:45 35° S 22:26:01 61° ESE 22:31:33 10° NNE
Cosmos 1184 Rocket 3.9 22:29:49 33° ENE 22:29:49 33° ENE 22:32:13 10° NNE
Cosmos 1455 2.6 22:25:56 10° N 22:29:38 47° ENE 22:29:59 46° E
SPOT 5 4.2 22:27:29 19° SSW 22:30:15 32° W 22:34:40 10° NNW
Cosmos 1464 Rocket 4.5 22:25:36 10° N 22:31:47 50° ENE 22:34:26 32° SE
H-2A R/B 4.2 22:30:24 10° N 22:34:19 47° WNW 22:36:20 25° SW
Cosmos 192 4.5 22:33:47 45° SSE 22:34:49 54° ESE 22:39:38 10° NNE
Cosmos 1503 Rocket 4.1 22:30:44 10° NNW 22:36:07 74° ENE 22:37:58 42° SE
Meteor 1-24 Rocket 4.4 22:33:33 18° SW 22:37:18 49° WNW 22:42:38 10° N
GEOS 3 Rocket 4.5 22:38:08 23° ESE 22:41:12 46° NE 22:46:17 10° NNW
ATLAS CENTAUR R/B 2.9 22:40:44 42° SSE 22:42:03 52° ESE 22:52:01 10° NE
Okean 1-7 Rocket 3.7 22:54:15 54° SE 22:54:44 58° E 22:59:07 10° NNE
USA 267 4.3 22:48:48 10° E 22:54:52 43° NNE 23:00:58 10° NW
Cosmos 389 Rocket 3.7 22:54:55 10° NNW 22:57:59 31° W 22:58:04 31° W
BREEZE-M DEB (TANK) 3.8 22:55:38 10° WNW 22:58:40 43° N 23:06:13 10° ENE
COSMOS 2428 4.4 22:54:14 10° WSW 22:59:16 31° NW 23:04:21 10° N
Cosmos 2278 Rocket 2.4 22:55:32 10° NNW 23:01:07 61° WSW 23:02:45 43° SSW
Cosmos 1726 Rocket 4.0 22:58:47 10° NNW 23:03:09 53° W 23:03:59 46° SW
Cosmos 2058 Rocket 2.9 22:59:22 10° N 23:03:49 88° W 23:04:24 67° S
Cosmos 2034 Rocket 4.1 23:01:48 10° N 23:07:57 66° E 23:10:01 42° SE
Centaur D AC-29 4.2 23:01:33 10° WSW 23:08:14 15° SW 23:09:10 15° SW
Cosmos 1867 4.4 23:03:30 10° NW 23:08:29 36° WSW 23:09:33 33° SW
Meteor 1-21 Rocket 4.2 23:14:29 45° SSW 23:16:20 82° W 23:22:07 10° N
SJ 16-02 2.5 23:12:32 10° N 23:16:30 32° ENE 23:17:27 29° E
Spot 4 3.9 23:20:17 55° SSW 23:21:06 66° WSW 23:25:51 10° NNW
Cosmos 1777 Rocket 4.0 23:16:21 10° NNW 23:21:41 77° ENE 23:22:56 53° SE
GP-B 4.0 23:21:37 10° NNE 23:25:43 35° E 23:26:01 35° E
Cosmos 1943 Rocket 2.9 23:21:21 10° NNW 23:26:36 44° ENE 23:28:53 29° ESE
Meteor 1-4 Rocket 3.0 23:23:42 10° N 23:26:36 55° NNE 23:26:36 55° NNE
Cosmos 1441 Rocket 3.7 23:29:44 50° W 23:29:52 51° WNW 23:33:37 10° N
ALOS 2 2.4 23:35:17 74° SSW 23:35:36 80° WSW 23:40:00 10° NNW
Tsikada Rocket 3.9 23:34:13 48° S 23:36:04 77° E 23:42:14 10° N
SL-4 R/B 3.5 23:33:48 10° W 23:37:29 34° NNW 23:40:57 10° NE
USA 229 DEB 3.8 23:38:46 43° SE 23:39:54 47° ESE 23:46:16 10° NE
USA 229 3.9 23:38:53 42° SE 23:40:00 46° ESE 23:46:22 10° NE
Cosmos 1703 4.3 23:44:02 34° W 23:44:23 35° WNW 23:48:04 10° N
NOSS 3-1 (C) 3.1 23:46:44 54° SSW 23:48:01 81° SE 23:54:09 10° NE
Cosmos 1626 Rocket 3.8 23:49:24 55° WSW 23:49:54 59° W 23:54:17 10° N
Cosmos 1408 4.2 23:53:09 25° ENE 23:53:09 25° ENE 23:55:45 10° NNE
Cosmos 724 4.3 23:46:32 10° NW 23:52:42 79° WSW 23:54:20 51° SSE
Cosmos 1825 4.4 23:54:28 16° E 23:54:28 16° E 23:56:39 10° NE
